Location: Carrières
(48.9495°N, 2.0407°E)
Time: 18:23:09
(UTC+00:00)

SL-16 R/B - Pass Details

Date: 28 January 2023
Orbit: 842 x 846 km, 71.0° (Epoch: 25 March)

Event Time Altitude Azimuth Distance (km) Brightness Sun altitude
Rises 18:13:27 0° 172° (S) 3,385 5.4 -15.0°
Reaches altitude 10° 18:16:11 10° 161° (SSE) 2,455 4.5 -15.4°
Maximum altitude 18:20:54 28° 104° (ESE) 1,522 3.0 -16.2°
Enters shadow 18:22:09 26° 82° (E) 1,608 3.0 -16.4°
